Погода в Малабо

Экваториальная Гвинея     3°43′54″N   8°45′19″E
темп.,
°C
ветер,
м/с
пор.,
м/с
влажн.,
%
обл.,
%
осадки,
мм/ч
давл.,
гПа
погр.,
м
8 мая, сб
сб801:00+25юз238166 0.3 1014291
04:00+24юз348378 1.3 1013296
07:00+24зюз458279 2.9 1015411
10:00+26зюз337560 0.4 1016693
13:00+26зюз3380100 4.7 1015566
16:00+25юз5679100 1.6 1013515
19:00+25юз3481100 2.0 1014326
22:00+24зюз2384100 1.0 1016221
9 мая, вс
вс901:00+24зюз2485100 3.1 1014329
04:00+23юз3485100 1.6 1013341
07:00+23зюз3488100 3.4 1015276
10:00+23юз238898 1.9 1016197
13:00+24зюз3482100 2.6 1014329
16:00+25юз347789 0.0 1011263
19:00+24з118199 0.0 1013251
22:00+24юз338496 0.1 1015308
10 мая, пн
пн1001:00+24юз338353 0.1 1014298
04:00+24юз338292 0.0 1013237
07:00+25ююз127997 0.0 1014224
10:00+26всв337896 0.1 1015648
13:00+26св227682 1.2 1014632
16:00+27сз217214 0.1 1011527
19:00+26юз348066 0.1 1011219
22:00+26ююз12817 0.0 1013216
11 мая, вт
вт1101:00+25ссв128426 0.0 1013369
04:00+25всв018477 0.2 1013308
07:00+25вюв118336 0.6 1014243
10:00+27зсз117753 0.2 1015639
13:00+26з338471 0.6 1014498
16:00+26юз448135 0.3 1012533
19:00+26юз448232 0.4 1013288
22:00+25юз338294 0.0 1014285
12 мая, ср
ср1201:00+25зюз568110 0.0 1013393
04:00+25зюз558125 0.5 1013461
07:00+25ююз3380100 0.8 1014363
10:00+26з327461 0.1 1016693
13:00+27з237464 0.3 1014682
16:00+26зюз457877 0.8 1012690
19:00+25юз33816 0.8 1012270
22:00+25ююв028045 0.0 1014287